Tracking 31027 objects as of 19-Jul-2025
HD Live streaming from Space Station
objects crossing your sky now

ASTROCAST-0105

Track ASTROCAST-0105 now!
10-day predictions
ASTROCAST-0105 is classified as:


NORAD ID: 47517
Int'l Code: 2021-006DH
Perigee: 433.4 km
Apogee: 435.3 km
Inclination: 97.3 °
Period: 93.1 minutes
Semi major axis: 6805 km
RCS: Unknown
Launch date: January 24, 2021
Source: (SWTZ)
Launch site: AIR FORCE EASTERN TEST RANGE (AFETR)

Uplink (MHz):
Downlink (MHz):
Beacon (MHz):
Mode:
Call sign:
Status: Unknown

Your satellite tracking list
RESURS O1 DEB
Track 1 satellite(s)




NASA's NSSDC Master Catalog

Two Line Element Set (TLE):
1 47517U 21006DH  25199.11742980  .00015034  00000-0  30546-3 0  9995
2 47517  97.2707 252.2361 0001368 209.4009 150.7164 15.46415563248863
Source of the keplerian elements: AFSPC